Weather History for Ft Lauderdale, FL

Change the Weather History Date:

Sunday, December 2, 2012

  Actual Average Record
Temperature  
Mean Temperature 77 °F 73 °F  
Max Temperature 80 °F 80 °F 87 °F (1977)
Min Temperature 73 °F 67 °F 39 °F (1956)
Degree Days  
Heating Degree Days 0 0  
Month to date heating degree days 0 0  
Since 1 July heating degree days 2 2  
Cooling Degree Days 12 8  
Month to date cooling degree days 23 17  
Year to date cooling degree days 4378 4530  
Growing Degree Days 26 (Base 50)    
Moisture  
Dew Point 63 °F    
Average Humidity 64    
Maximum Humidity 73    
Minimum Humidity 54    
Precipitation  
Precipitation T in 0.07 in 2.04 in (1983)
Month to date precipitation T 0.14  
Year to date precipitation 60.12 59.86  
Snow  
Snow 0.00 in - - ()
Month to date snowfall 0.0  
Since 1 July snowfall 0.0  
Snow Depth 0.00 in    
Sea Level Pressure  
Sea Level Pressure 30.17 in    
Wind  
Wind Speed 15 mph (East)    
Max Wind Speed 21 mph    
Max Gust Speed 26 mph    
Visibility 10 miles    
Events Rain    
T = Trace of Precipitation, MM = Missing Value Source: NWS Daily Summary

Daily Weather History Graph

Daily Weather History Graph

Search for Another Location

Airport:

Trip Planner

Search our weather history database for the weather conditions in past years. The results will help you decide how hot, cold, wet, or windy it might be!

Date:

Astronomy

Dec. 02, 2012 Rise Set
Actual Time 6:51 AM EST 5:28 PM EST
Civil Twilight 6:26 AM EST 5:53 PM EST
Nautical Twilight 5:58 AM EST 6:22 PM EST
Astronomical Twilight 5:30 AM EST 6:50 PM EST
Moon 9:05 PM EST (12/2) 9:48 AM EST (12/2)
Length of Visible Light 11h 26m
Length of Day
10h 36m
Waning Gibbous, 86% of the Moon is Illuminated
Dec 2
Waning Gibbous
Dec 6
Last Quarter
Dec 13
New
Dec 20
First Quarter
Dec 28
Full

Hourly Weather History & Observations

Time (EST) Temp. Heat Index Dew Point Humidity Pressure Visibility Wind Dir Wind Speed Gust Speed Precip Events Conditions
12:53 AM 73.9 °F - 63.0 °F 68% 30.17 in 10.0 mi East 12.7 mph 20.7 mph N/A   Scattered Clouds
1:53 AM 73.9 °F - 64.0 °F 71% 30.16 in 10.0 mi ENE 13.8 mph - N/A   Partly Cloudy
2:53 AM 73.9 °F - 63.0 °F 68% 30.14 in 10.0 mi ENE 12.7 mph 21.9 mph N/A   Scattered Clouds
3:53 AM 73.0 °F - 63.0 °F 71% 30.14 in 10.0 mi ENE 15.0 mph 23.0 mph N/A   Partly Cloudy
4:53 AM 73.9 °F - 63.0 °F 68% 30.15 in 10.0 mi East 13.8 mph - N/A   Scattered Clouds
5:53 AM 73.9 °F - 63.0 °F 68% 30.17 in 10.0 mi East 13.8 mph 21.9 mph N/A   Scattered Clouds
6:53 AM 73.9 °F - 62.1 °F 66% 30.17 in 10.0 mi East 11.5 mph - N/A   Scattered Clouds
7:53 AM 75.0 °F - 61.0 °F 62% 30.19 in 10.0 mi ENE 16.1 mph 23.0 mph N/A   Partly Cloudy
8:53 AM 77.0 °F - 63.0 °F 62% 30.21 in 10.0 mi ENE 15.0 mph 23.0 mph N/A   Partly Cloudy
9:53 AM 78.1 °F - 64.0 °F 62% 30.22 in 10.0 mi ENE 16.1 mph 24.2 mph N/A   Partly Cloudy
10:53 AM 78.1 °F - 64.0 °F 62% 30.21 in 10.0 mi ENE 18.4 mph - N/A   Scattered Clouds
11:53 AM 78.1 °F - 64.9 °F 64% 30.20 in 10.0 mi East 17.3 mph 24.2 mph N/A   Scattered Clouds
12:53 PM 77.0 °F - 66.0 °F 69% 30.17 in 10.0 mi ENE 15.0 mph - N/A   Mostly Cloudy
1:53 PM 79.0 °F - 63.0 °F 58% 30.15 in 10.0 mi East 13.8 mph 24.2 mph N/A   Mostly Cloudy
2:53 PM 80.1 °F 81.5 °F 63.0 °F 56% 30.14 in 10.0 mi East 18.4 mph 24.2 mph N/A   Scattered Clouds
3:53 PM 77.0 °F - 62.1 °F 60% 30.14 in 10.0 mi East 15.0 mph 23.0 mph N/A   Scattered Clouds
4:53 PM 75.9 °F - 61.0 °F 60% 30.15 in 10.0 mi East 16.1 mph - N/A   Mostly Cloudy
5:53 PM 75.9 °F - 62.1 °F 62% 30.16 in 10.0 mi East 12.7 mph - N/A   Mostly Cloudy
6:53 PM 75.9 °F - 61.0 °F 60% 30.17 in 10.0 mi East 13.8 mph - N/A   Scattered Clouds
7:53 PM 75.9 °F - 61.0 °F 60% 30.18 in 10.0 mi East 15.0 mph - N/A   Mostly Cloudy
8:53 PM 75.0 °F - 61.0 °F 62% 30.18 in 10.0 mi East 15.0 mph - N/A   Mostly Cloudy
9:53 PM 75.0 °F - 64.9 °F 71% 30.18 in 10.0 mi ENE 13.8 mph - 0.00 in Rain Light Rain
10:53 PM 75.0 °F - 64.0 °F 69% 30.19 in 10.0 mi ENE 16.1 mph 21.9 mph 0.00 in   Mostly Cloudy
11:53 PM 75.0 °F - 62.1 °F 64% 30.19 in 10.0 mi East 15.0 mph 19.6 mph N/A   Scattered Clouds